Location: Cactus School
(34.5700°N, 118.0931°W)
Time: 18:23:05
(UTC-08:00)

Tiros 1 - Pass Details

Date: 27 November 2019
Orbit: 630 x 664 km, 48.4° (Epoch: 12 December)

Event Time Altitude Azimuth Distance (km) Brightness Sun altitude
Rises 15:31:20 0° 313° (NW) 2,917 10.7 11.7°
Reaches altitude 10° 15:34:00 10° 327° (NNW) 2,009 9.7 11.3°
Maximum altitude 15:37:50 25° 23° (NNE) 1,275 8.3 10.7°
Drops below altitude 10° 15:41:40 10° 79° (E) 2,013 9.2 10.0°
Sets 15:44:20 0° 92° (E) 2,924 10.0 9.6°
